Home > Weather > Birmingham > Past weeks

Flag for USA Weather for the Past 2 Weeks in Birmingham, Alabama, USA

Now
70 °F

Partly sunny.


Feels Like: 77 °F
Forecast: 52 / 74 °F
Wind: 9 mph from Northwest

Location: Birmingham International Airport

Current Time: May 4, 2016 at 2:29:13 PM

Latest Report: May 4, 2016 at 1:53 PM


Visibility: 10 mi

Pressure: 29.82 "Hg

Humidity: 39%

Dew Point: 44 °F

Location of BirminghamLocation

Historic Weather in Birmingham — Graph

°F

Birmingham Temperature Yesterday

Maximum temperature yesterday: 73 °F (at 2:53 PM)
Minimum temperature yesterday: 58 °F (at 11:53 PM)
Average temperature yesterday: 66 °F

High & Low Weather Summary for the Past Weeks

 TemperatureHumidityPressure
High86 °F (Apr 29, 2:53 PM)100% (May 1, 10:53 PM)30.18 "Hg (May 1, 10:53 PM)
Low52 °F (Apr 23, 5:53 AM)24% (Apr 19, 12:53 PM)29.78 "Hg (Apr 27, 5:53 PM)
Average70 °F69%29.97 "Hg
* Reported Apr 19 12:53 PM — May 4 12:53 PM, Birmingham, Weather by CustomWeather, © 2016

Note: Actual official high and low records may vary slightly from our data, if they occured in-between our weather recording intervals... More about our weather records

Advertising

Birmingham Weather History for the Previous 24 Hours

Scroll right to see more
 ConditionsComfort  
Time TempWeatherWind HumidityBarometerVisibility
12:53 PM
Wed, May 4
70 °FScattered clouds.12 mph38%29.84 "Hg10 mi
11:53 AM69 °FScattered clouds.9 mph38%29.86 "Hg10 mi
10:53 AM66 °FScattered clouds.12 mph50%29.88 "Hg10 mi
9:53 AM64 °FPassing clouds.13 mph61%29.88 "Hg10 mi
8:53 AM60 °FPassing clouds.8 mph72%29.89 "Hg10 mi
7:53 AM56 °FSunny.5 mph84%29.90 "Hg10 mi
6:53 AM53 °FClear.No wind93%29.91 "Hg10 mi
5:53 AM52 °FClear.No wind93%29.90 "Hg10 mi
4:53 AM52 °FClear.No wind93%29.90 "Hg10 mi
3:53 AM54 °FPassing clouds.3 mph86%29.90 "Hg10 mi
2:53 AM55 °FClear.3 mph87%29.89 "Hg10 mi
1:53 AM56 °FPassing clouds.5 mph84%29.90 "Hg10 mi
12:53 AM57 °FClear.5 mph81%29.91 "Hg10 mi
11:53 PM
Tue, May 3
58 °FPassing clouds.6 mph81%29.91 "Hg10 mi
10:53 PM60 °FPassing clouds.7 mph72%29.92 "Hg10 mi
9:53 PM62 °FPassing clouds.7 mph73%29.91 "Hg10 mi
8:53 PM65 °FPassing clouds.7 mph63%29.91 "Hg10 mi
7:53 PM67 °FPartly sunny.8 mph59%29.90 "Hg10 mi
6:53 PM70 °FPassing clouds.12 mph51%29.88 "Hg10 mi
5:53 PM72 °FScattered clouds.10 mph53%29.88 "Hg10 mi
4:53 PM73 °FScattered clouds.9 mph51%29.88 "Hg10 mi
3:53 PM73 °FPartly sunny.13 mph53%29.88 "Hg10 mi
2:53 PM73 °FScattered clouds.9 mph51%29.90 "Hg10 mi
Weather by CustomWeather, © 2016

See weather overviewHow to use our weather pages